WetterOnline ( http://www.wetteronline.de )

Wetter aktuell Ulm

Aktuelles Wetter: Ulm-Mähringen (592m)

6-stündlich | Neueste Meldungen
Ortszeit Temperatur Wetter
Mo, 17.12. 1:00 -2.4° C Nebel
So, 16.12. 19:00 0.3° C bedeckt
So, 16.12. 13:00 -1.6° C bedeckt
So, 16.12. 7:00 -5.5° C leichter Schneefall
So, 16.12. 1:00 -5.2° C wolkig
Sa, 15.12. 19:00 -3.5° C bedeckt
Sa, 15.12. 13:00 -3.0° C bedeckt
Sa, 15.12. 7:00 -3.6° C bedeckt
Ortszeit Temperatur Wetter
Mo, 17.12. 3:00 -5.1° C bedeckt
Mo, 17.12. 2:50 -5.1° C bedeckt
Mo, 17.12. 2:40 -5.4° C bedeckt
Mo, 17.12. 2:30 -5.4° C Nebel
Mo, 17.12. 2:20 -5.4° C Nebel
Mo, 17.12. 2:10 -5.2° C Nebel
Mo, 17.12. 2:00 -4.8° C Nebel
Mo, 17.12. 1:30 -4.0° C Nebel
Mo, 17.12. 1:00 -2.4° C Nebel
Mo, 17.12. 0:30 -2.0° C Nebel
Mo, 17.12. 0:00 -2.5° C Nebel
Ortszeit Relative Feuchte Sichtweite
Mo, 17.12. 1:00 100% 100 m
So, 16.12. 19:00 100% 3.6 km
So, 16.12. 13:00 94% 7 km
So, 16.12. 7:00 96% 1.3 km
So, 16.12. 1:00 87% 11 km
Sa, 15.12. 19:00 81% 16 km
Sa, 15.12. 13:00 80% 16 km
Sa, 15.12. 7:00 80% 17 km
Ortszeit Relative Feuchte Sichtweite
Mo, 17.12. 3:00 100% 2.7 km
Mo, 17.12. 2:50 100% -
Mo, 17.12. 2:40 100% -
Mo, 17.12. 2:30 100% 0.2 km
Mo, 17.12. 2:20 100% -
Mo, 17.12. 2:10 100% -
Mo, 17.12. 2:00 100% 100 m
Mo, 17.12. 1:30 100% 0.2 km
Mo, 17.12. 1:00 100% 100 m
Mo, 17.12. 0:30 100% 100 m
Mo, 17.12. 0:00 100% <100 m
Ortszeit Niederschlagsmenge Niederschlagsart
Mo, 17.12. 1:00 0.1 l/m2 in 6 Std. Regen
So, 16.12. 19:00 2 l/m2 in 12 Std. -
So, 16.12. 13:00 2 l/m2 in 6 Std. Schnee, Sprühregen
So, 16.12. 7:00 0.9 l/m2 in 12 Std. Schnee
So, 16.12. 1:00 0.0 l/m2 in 6 Std. -
Sa, 15.12. 19:00 0.1 l/m2 in 12 Std. -
Sa, 15.12. 13:00 0.1 l/m2 in 6 Std. Schnee, Regen
Sa, 15.12. 7:00 0.0 l/m2 in 12 Std. -
Ortszeit Niederschlagsmenge Niederschlagsart
Mo, 17.12. 3:00 0.0 l/m2 in 1 Std. -
Mo, 17.12. 2:50 keine Meldung -
Mo, 17.12. 2:40 keine Meldung -
Mo, 17.12. 2:30 0.0 l/m2 in 1 Std. -
Mo, 17.12. 2:20 keine Meldung -
Mo, 17.12. 2:10 keine Meldung -
Mo, 17.12. 2:00 0.0 l/m2 in 1 Std. -
Mo, 17.12. 1:30 0.0 l/m2 in 1 Std. -
Mo, 17.12. 1:00 0.0 l/m2 in 1 Std. Regen
Mo, 17.12. 0:30 0.0 l/m2 in 1 Std. -
Mo, 17.12. 0:00 0.0 l/m2 in 1 Std. -
Ortszeit Stärke Spitze Richtung
km/h Bft. km/h Grad Sektor
Mo, 17.12. 1:00 0 0 18 - -
So, 16.12. 19:00 11 2 29 180° S
So, 16.12. 13:00 14 3 25 210° SW
So, 16.12. 7:00 7 2 18 160° S
So, 16.12. 1:00 11 2 28 110° O
Sa, 15.12. 19:00 11 2 29 120° SO
Sa, 15.12. 13:00 11 2 25 110° O
Sa, 15.12. 7:00 11 2 22 120° SO
Ortszeit Stärke Spitze Richtung
km/h Bft. km/h Grad Sektor
Mo, 17.12. 3:00 4 1 7 310° NW
Mo, 17.12. 2:50 4 1 - 310° NW
Mo, 17.12. 2:40 6 1 - 330° NW
Mo, 17.12. 2:30 6 1 6 20° N
Mo, 17.12. 2:20 6 1 - 20° N
Mo, 17.12. 2:10 4 1 - 350° N
Mo, 17.12. 2:00 7 2 11 350° N
Mo, 17.12. 1:30 7 2 7 360° N
Mo, 17.12. 1:00 0 0 7 - -
Mo, 17.12. 0:30 7 2 7 200° S
Mo, 17.12. 0:00 6 1 7 150° SO
Ortszeit Untergrenze Bedeckung Gattung
total tief tief mittel hoch
Mo, 17.12. 1:00 <30 m 8/8 8/8 - - -
So, 16.12. 19:00 60 m 8/8 8/8 - - -
So, 16.12. 13:00 240 m 8/8 8/8 - - -
So, 16.12. 7:00 30 m 8/8 8/8 - - -
So, 16.12. 1:00 60 m 8/8 2/8 - - -
Sa, 15.12. 19:00 480 m 8/8 8/8 - - -
Sa, 15.12. 13:00 480 m 8/8 8/8 - - -
Sa, 15.12. 7:00 90 m 8/8 8/8 - - -
Ortszeit Bedeckungsgrad in Achtel und Wolkenuntergrenze
Mo, 17.12. 3:00 8(30m) 8(1020m)
Mo, 17.12. 2:50 8(30m) 8(1020m)
Mo, 17.12. 2:40 8(30m) 8(1020m)
Mo, 17.12. 2:30 8(30m) 8(1020m)
Mo, 17.12. 2:20 8(30m)
Mo, 17.12. 2:10 8(<30m)
Mo, 17.12. 2:00 8(<30m)
Mo, 17.12. 1:30 8(<30m)
Mo, 17.12. 1:00 8(<30m)
Mo, 17.12. 0:30 8(<30m)
Mo, 17.12. 0:00 8(<30m) 8(1110m)
Ortszeit Luftdruck NN (hPa) Tendenz (hPa in 3 Std.)
Mo, 17.12. 1:00 1019 + 0,5
So, 16.12. 19:00 1017 + 1,2
So, 16.12. 13:00 1015 + 0,2
So, 16.12. 7:00 1017 - 1,7
So, 16.12. 1:00 1020 - 2,5
Sa, 15.12. 19:00 1025 - 0,7
Sa, 15.12. 13:00 1026 - 1,1
Sa, 15.12. 7:00 1027 + 0,7
Ortszeit Luftdruck NN (hPa) Tendenz (hPa in 3 Std.)
Mo, 17.12. 3:00 1020 + 0,4
Mo, 17.12. 2:50 1020 keine Meldung
Mo, 17.12. 2:40 1020 keine Meldung
Mo, 17.12. 2:30 1020 + 0,5
Mo, 17.12. 2:20 1020 keine Meldung
Mo, 17.12. 2:10 1020 keine Meldung
Mo, 17.12. 2:00 1019 + 0,5
Mo, 17.12. 1:30 1019 + 0,6
Mo, 17.12. 1:00 1019 + 0,5
Mo, 17.12. 0:30 1018 + 0,4
Mo, 17.12. 0:00 1019 + 0,3
Ortszeit Schneehöhe (cm)
Mo, 17.12. 1:00 6
So, 16.12. 19:00 7
So, 16.12. 13:00 7
So, 16.12. 7:00 4
So, 16.12. 1:00 2
Sa, 15.12. 19:00 2
Sa, 15.12. 13:00 2
Sa, 15.12. 7:00 2
Ortszeit Schneehöhe (cm)
Mo, 17.12. 3:00 6
Mo, 17.12. 2:50 6
Mo, 17.12. 2:40 6
Mo, 17.12. 2:30 6
Mo, 17.12. 2:20 6
Mo, 17.12. 2:10 6
Mo, 17.12. 2:00 6
Mo, 17.12. 1:30 6
Mo, 17.12. 1:00 6
Mo, 17.12. 0:30 6
Mo, 17.12. 0:00 6
Link zu dieser Seite / Seite empfehlen

Das Wetter in ...